User: anonymous   Login
Location: Austin, TX
(30.3000°N, 97.7500°W)
Time: 00:24:37
(UTC-05:00)
Language:

Cosmos 2082 Rocket - Orbit

View from above orbital plane
View from above orbital plane
View from above satellite
View from above satellite

Ground track
Ground track

The orbit data is extracted from the following two-line orbital elements,

1 20625U 90046B   18174.22988651 +.00000259 +00000-0 +15924-3 0  9996
2 20625 071.0001 090.3858 0016327 264.2622 095.6639 14.14631250450051
Epoch (UTC): 23 June 2018 05:31:02
Eccentricity: 0.0016327
inclination: 71.0001°
perigee height: 832 km
apogee height: 855 km
right ascension of ascending node: 90.3858°
argument of perigee: 264.2622°
revolutions per day: 14.14631250
mean anomaly at epoch: 95.6639°
orbit number at epoch: 45005

The dashed part of the orbit path shows where the satellite is in the earth's shadow,  

DLR